Regional Weather Roundup
Issued by NWS Sioux Falls, SD

Home | Current Version | Previous Version | Graphics & Text | Print | Product List | Glossary Off
Versions: 1 2 3 4 5 6 7 8 9 10 11 12 13 14 15 16 17 18 19 20 21 22 23 24 25 26 27 28 29 30 31 32 33 34 35 36 37 38 39 40 41 42 43 44 45 46 47 48 49 50

000
ASUS43 KFSD 191402
RWRFSD

WEATHER ROUNDUP FOR SE SOUTH DAKOTA/SW MINNESOTA/NW IOWA
NATIONAL WEATHER SERVICE SIOUX FALLS SD
800 AM CST SUN FEB 19 2017

NOTE: "FAIR" INDICATES FEW OR NO CLOUDS BELOW 12,000 FEET WITH NO
SIGNIFICANT WEATHER AND OR OBSTRUCTIONS TO VISIBILITY.


SDZ038>040-050-052>070-191500-
SOUTHEAST SOUTH DAKOTA

CITY           SKY/WX    TMP DP  RH WIND       PRES   REMARKS
BROOKINGS      PTCLDY    40  34  79 SE16      29.78S
CHAMBERLAIN    CLOUDY    40  36  86 SE10      29.66R
HURON          PTCLDY    40  35  83 SE12      29.70F
MADISON        FAIR      36  36 100 SE10      29.77F
MITCHELL       CLOUDY    39  34  82 SE14      29.71F
SIOUX FALLS    CLOUDY    41  35  79 SE8       29.80S
WINNER         FAIR      48  36  63 S12       29.64R
YANKTON        CLEAR     37  34  87 E8        29.76F
$$

MNZ071-072-080-081-089-090-097-098-191500-
SOUTHWEST MINNESOTA

CITY           SKY/WX    TMP DP  RH WIND       PRES   REMARKS
FAIRMONT       PTCLDY    35  35 100 S8        29.92R FOG     WCI  29
JACKSON        CLOUDY    37  34  87 S12       29.90R
LUVERNE        CLOUDY    36  32  87 S6        29.83F
MARSHALL       PTCLDY    43  36  76 SE12      29.82F
MONTEVIDEO     CLOUDY    36  36 100 S10       29.85F
PIPESTONE      CLOUDY    41  30  65 S10       29.81S
REDWOOD FALLS  PTCLDY    37  35  92 E7        29.87S FOG
TRACY          CLOUDY    43  38  82 S17       29.84S
WINDOM         CLOUDY    41  37  87 SE13      29.87S
WORTHINGTON    CLOUDY    40  35  83 SE10      29.86
$$

IAZ001>003-012>014-020>022-031-032-NEZ013-014-SDZ071-191500-
NORTHWEST IOWA

CITY           SKY/WX    TMP DP  RH WIND       PRES   REMARKS
CHEROKEE       CLEAR     37  34  87 CALM      29.89R
DENISON        PTCLDY    43  37  81 SE5       29.89R
ESTHERVILLE    FOG       32  32 100 S9        29.90R VSB 1/2 WCI  24
LE MARS        CLEAR     39  34  81 S5        29.86S
SHELDON        CLOUDY    41  39  93 SE9G16    29.84S
SIOUX CITY     CLOUDY    39  33  79 SE10      29.86R
SPENCER        CLOUDY    37  36  96 SE8       29.89R
STORM LAKE     CLOUDY    36  32  87 SE6       29.89R
$$

ABBREVIATIONS USED IN REMARKS
   TC - TEMPERATURE IN CELSIUS
  WCI - WIND CHILL INDEX
   HX - HEAT INDEX
  VSB - VISIBILITY




USA.gov is the U.S. government's official web portal to all federal, state and local government web resources and services.